Guatemala, Guatemala

9:10 AM CST on June 22, 2018 (GMT -0600)
La Aurora International

Weather History for MGGT - June, 2018

Change the Weather History Date:

Thursday, June 14, 2018

  Actual Average Record
Temperature  
Mean Temperature 70 °F -  
Max Temperature 77 °F 74 °F 82 °F (1998)
Min Temperature 62 °F 60 °F 59 °F (2001)
Cooling Degree Days 4    
Growing Degree Days 20 (Base 50)    
Moisture  
Dew Point 63 °F    
Average Humidity 89    
Maximum Humidity 100    
Minimum Humidity 65    
Precipitation  
Precipitation 0.00 in - - ()
Sea Level Pressure  
Sea Level Pressure 30.27 in    
Wind  
Wind Speed 5 mph ()    
Max Wind Speed 66 mph    
Max Gust Speed -    
Visibility 4.5 miles    
Events Rain , Thunderstorm    
Averages and records for this station are not official NWS values.
T = Trace of Precipitation, MM = Missing Value Source: Averaged Metar Reports

Daily Weather History Graph

Daily Weather History Graph

Search for Another Location

Airport or City:

Astronomy

Jun. 14, 2018 Rise Set
Actual Time 5:32 AM CST 6:31 PM CST
Civil Twilight 5:09 AM CST 6:55 PM CST
Nautical Twilight 4:41 AM CST 7:23 PM CST
Astronomical Twilight 4:12 AM CST 7:51 PM CST
Moon 6:22 AM CST (6/14) 7:39 PM CST (6/14)
Length of Visible Light 13h 46m
Length of Day
12h 59m
New Moon, 1% of the Moon is Illuminated
Jun 14
New Moon
Jun 20
First Quarter
Jun 27
Full
Jul 6
Last Quarter
Jul 12
New

Hourly Weather History & Observations

Time (CST) Temp. Dew Point Humidity Pressure Visibility Wind Dir Wind Speed Gust Speed Precip Events Conditions
12:00 AM 64.4 °F 62.6 °F 94% 30.30 in 6.2 mi NNE 4.6 mph - N/A   Mostly Cloudy
1:00 AM 64.4 °F 62.6 °F 94% 30.27 in 4.3 mi NNW 3.5 mph - N/A   Mostly Cloudy
2:00 AM 64.4 °F 62.6 °F 94% 30.27 in 4.3 mi North 4.6 mph - N/A   Mostly Cloudy
3:00 AM 64.4 °F 62.6 °F 94% 30.27 in 5.0 mi NE 4.6 mph - N/A   Scattered Clouds
4:00 AM 64.4 °F 62.6 °F 94% 30.27 in 5.0 mi Calm Calm - N/A   Mostly Cloudy
5:00 AM 64.4 °F 62.6 °F 94% 30.27 in 5.0 mi Calm Calm - N/A   Mostly Cloudy
6:00 AM 64.4 °F 62.6 °F 94% 30.27 in 4.3 mi North 4.6 mph - N/A   Overcast
7:00 AM 64.4 °F 62.6 °F 94% 30.27 in 3.7 mi North 6.9 mph - N/A   Mostly Cloudy
9:00 AM 69.8 °F 62.6 °F 78% 30.30 in 4.3 mi NNE 4.6 mph - N/A   Mostly Cloudy
10:00 AM 71.6 °F 62.6 °F 73% 30.30 in 5.0 mi NE 4.6 mph - N/A   Mostly Cloudy
11:00 AM 71.6 °F 62.6 °F 73% 30.30 in 6.2 mi Calm Calm - N/A   Mostly Cloudy
12:00 PM 75.2 °F 64.4 °F 69% 30.27 in 6.2 mi Variable 3.5 mph - N/A   Mostly Cloudy
1:00 PM 77.0 °F 64.4 °F 65% 30.24 in 6.2 mi Calm Calm - N/A   Scattered Clouds
2:00 PM 75.2 °F 64.4 °F 69% 30.21 in 5.0 mi South 16.1 mph - N/A Thunderstorm Thunderstorm
3:00 PM 62.6 °F 62.6 °F 100% 30.21 in 2.5 mi NNE 6.9 mph - N/A Rain , Thunderstorm Thunderstorms and Rain
4:00 PM 64.4 °F 64.4 °F 100% 30.24 in 4.3 mi South 4.6 mph - N/A Rain Rain
5:00 PM 64.4 °F 62.6 °F 94% 30.24 in 6.2 mi South 4.6 mph - N/A   Light Drizzle
6:00 PM - - %  in 0 mi SE 65.6 mph - -   Scattered Clouds
6:00 PM 64.4 °F 62.6 °F 94% 30.24 in 4.3 mi South 6.9 mph - N/A   Light Drizzle
7:00 PM 64.4 °F 64.4 °F 100% 30.27 in 3.7 mi Calm Calm - N/A Rain Light Rain
8:00 PM 64.4 °F 62.6 °F 94% 30.30 in 4.3 mi Calm Calm - N/A   Light Drizzle
9:00 PM 64.4 °F 62.6 °F 94% 30.30 in 3.7 mi Calm Calm - N/A   Light Drizzle
10:00 PM 64.4 °F 62.6 °F 94% 30.30 in 4.3 mi Calm Calm - N/A   Mostly Cloudy
11:00 PM 64.4 °F 62.6 °F 94% 30.33 in 4.3 mi Calm Calm - N/A   Mostly Cloudy